[[{"header":{"parameterUnit":"m.s-1","parameterCategory":1,"la1":30.2991,"la2":30.254,"lo1":-89.0895,"lo2":-89.0444,"dy":0.0017,"dx":0.0017,"nx":28,"ny":28,"refTime":"2026-02-14T03:00:00:Z","depth":0,"parameterNumber":2,"parameterNumberName":"U-component_of_WINDS"},"data":[0,0,0,0,0,0,0,0,0,0,0,0,0,0,0,0,0,0,0,0,0,0,0,0,0,0,0,0,0,0,0,0,0,0,0,0,0,0,0,0,0,0,0,0,0,0,0,0,0,0,0,0,0,0,0,0,0,0,-4.5141,-4.5142,0,-4.5201,-4.5202,-4.5203,-4.5168,-4.5167,-4.5165,-4.5163,-4.5232,-4.5235,-4.5239,0,0,0,0,0,0,0,0,0,0,0,0,0,-4.5006,-4.5008,-4.5141,-4.5142,-4.5143,-4.5201,-4.5202,-4.5203,-4.5169,-4.5167,-4.5165,-4.5163,-4.5231,-4.5235,-4.5239,0,0,0,0,0,0,0,0,0,0,0,0,0,-4.5065,-4.5009,-4.5141,-4.5133,-4.5132,-4.5201,-4.5202,-4.5203,-4.5169,-4.5167,-4.5164,-4.5162,-4.523,-4.5235,-4.524,-4.5322,0,0,-4.5255,-4.5257,0,0,0,0,0,0,0,0,-4.5062,-4.507,-4.5133,-4.5133,-4.5133,-4.5175,-4.5179,-4.5243,-4.517,-4.5156,-4.5163,-4.516,-4.5216,-4.5222,-4.5239,-4.5325,-4.5328,-4.5256,-4.5259,-4.5261,-4.5262,0,0,0,0,0,0,0,-4.5058,-4.5068,-4.5165,-4.5134,-4.5134,-4.5129,-4.5134,-4.5192,-4.5199,-4.5157,-4.5154,-4.5161,-4.5215,-4.5234,-4.524,-4.5329,-4.5256,-4.526,-4.5263,-4.5265,-4.5491,-4.5494,0,0,0,0,0,0,-4.5053,-4.5064,-4.5163,-4.5167,-4.509,-4.5133,-4.514,-4.5164,-4.5199,-4.5201,-4.5164,-4.516,-4.5226,-4.5234,-4.5242,-4.5343,-4.5261,-4.5266,-4.5269,-4.5489,-4.5492,-4.5495,0,0,0,0,0,0,-4.5051,-4.5062,-4.5161,-4.5115,-4.5127,-4.5138,-4.5166,-4.5167,-4.5185,-4.5204,-4.5206,-4.518,-4.5225,-4.5235,-4.5303,-4.5345,-4.5268,-4.5273,-4.5485,-4.549,-4.5494,-4.5544,0,0,0,0,0,0,-4.5047,-4.5062,-4.5091,-4.5116,-4.513,-4.5218,-4.5169,-4.517,-4.5193,-4.5189,-4.522,-4.5223,-4.5223,-4.5296,-4.5308,-4.535,-4.5277,-4.5481,-4.5487,-4.5492,-4.5538,-4.5549,-4.5559,0,0,0,0,0,-4.5042,-4.5103,-4.5092,-4.5104,-4.5166,-4.522,-4.5228,-4.5225,-4.5197,-4.5228,-4.524,-4.5222,-4.5339,-4.5303,-4.5317,-4.5361,-4.5479,-4.5485,-4.5492,-4.5534,-4.5547,-4.5558,0,0,0,0,0,0,-4.5083,-4.5106,-4.5094,-4.5165,-4.5191,-4.5214,-4.5252,-4.5239,-4.5275,-4.527,-4.5267,-4.5275,-4.5346,-4.5361,-4.532,-4.5445,-4.5405,-4.5414,-4.5432,-4.5445,-4.5455,-4.5449,-4.5281,0,0,0,0,0,-4.5101,-4.514,-4.5159,-4.522,-4.5233,-4.5241,-4.5264,-4.526,-4.5288,-4.5299,-4.5316,-4.5346,-4.539,-4.5418,-4.5459,-4.5542,-4.555,-4.558,-4.559,-4.5598,-4.5606,-4.5654,-4.5668,-4.5517,-4.5517,-4.5517,0,0,-4.5137,-4.5154,-4.5179,-4.5229,-4.5248,-4.5292,-4.525,-4.5298,-4.5331,-4.5307,-4.5371,-4.5386,-4.542,-4.5496,-4.553,-4.551,-4.565,-4.5606,-4.5613,-4.5616,-4.5662,-4.5676,-4.5689,-4.5521,-4.5521,-4.552,0,0,-4.5225,-4.5241,-4.5294,-4.5315,-4.5345,-4.535,-4.5363,-4.539,-4.5398,-4.5463,-4.5446,-4.5488,-4.5562,-4.5588,-4.561,-4.5713,-4.5699,-4.5727,-4.5779,-4.5826,-4.5838,-4.5848,-4.5886,-4.5899,-4.5735,-4.5735,-4.5735,0,-4.5266,-4.5328,-4.5324,-4.5373,-4.5396,-4.5376,-4.5432,-4.5453,-4.5496,-4.5514,-4.5492,-4.5586,-4.5608,-4.569,-4.5715,-4.5734,-4.5752,-4.5722,-4.5836,-4.5846,-4.5856,-4.5892,-4.5907,-4.5739,-4.5738,-4.5738,-4.5738,0,-4.5379,-4.5423,-4.5463,-4.5503,-4.5532,-4.5584,-4.5591,-4.5621,-4.5616,-4.5625,-4.5694,-4.5719,-4.5765,-4.5786,-4.5781,-4.5869,-4.5856,-4.5835,-4.5794,-4.5874,-4.5908,-4.5922,-4.5743,-4.5742,-4.5741,-4.574,0,0,-4.5491,-4.553,-4.5545,-4.5564,-4.5598,-4.5633,-4.5688,-4.5731,-4.5758,-4.579,-4.5837,-4.5902,-4.5884,-4.591,-4.5909,-4.595,-4.6032,-4.5924,-4.5925,-4.5944,-4.6133,-4.6148,-4.6164,-4.6024,-4.6026,-4.6028,-4.6131,0,-4.5581,-4.5671,-4.567,-4.5755,-4.5798,-4.5782,-4.583,-4.5857,-4.5869,-4.5909,-4.5923,-4.597,-4.5941,-4.5957,-4.5997,-4.6013,-4.607,-4.6006,-4.607,-4.6072,-4.606,-4.6182,-4.6197,-4.6292,-4.6144,-4.6146,-4.6148,0,-4.5696,-4.5731,-4.582,-4.585,-4.5868,-4.591,-4.5952,-4.599,-4.6024,-4.603,-4.606,-4.6055,-4.6114,-4.6073,-4.6155,-4.6112,-4.6139,-4.6152,-4.6156,-4.6161,-4.6113,-4.619,-4.6322,-4.6336,-4.6168,-4.6167,-4.6165,0,-4.577,-4.5839,-4.5901,-4.5919,-4.5955,-4.5986,-4.6003,-4.6033,-4.6061,-4.61,-4.6119,-4.6165,-4.619,-4.6228,-4.6236,-4.6205,-4.6321,-4.6279,-4.6329,-4.6329,-4.6352,-4.635,-4.649,-4.6371,-4.6371,-4.637,-4.637,0,-4.5869,-4.5924,-4.5935,-4.5973,-4.6036,-4.6038,-4.6101,-4.6116,-4.6145,-4.6188,-4.6179,-4.6221,-4.623,-4.6276,-4.6283,-4.6352,-4.6364,-4.6373,-4.6374,-4.6373,-4.6372,-4.6389,-4.6383,-4.6374,-4.6373,-4.6373,-4.6372,0,-4.596,-4.5969,-4.6036,-4.6067,-4.6076,-4.6121,-4.6148,-4.6187,-4.6199,-4.6255,-4.6269,-4.6288,-4.6341,-4.6354,-4.6418,-4.6424,-4.6505,-4.6501,-4.6493,-4.6492,-4.6541,-4.6537,-4.6696,-4.6718,-4.6585,-4.6587,-4.6588,0,-4.6022,-4.6064,-4.6099,-4.6127,-4.6146,-4.6191,-4.6219,-4.6224,-4.6255,-4.6298,-4.6333,-4.6385,-4.6426,-4.6513,-4.6535,-4.6585,-4.6582,-4.6634,-4.6589,-4.6588,-4.6583,-4.658,-4.6585,-4.6642,-4.6644,-4.6645,-4.6646,0,-4.6132,-4.6136,-4.6175,-4.6219,-4.6253,-4.6287,-4.632,-4.6345,-4.6355,-4.6391,-4.6444,-4.6477,-4.6542,-4.6595,-4.6646,-4.6668,-4.666,-4.6661,-4.6675,-4.6673,-4.6667,-4.6672,-4.6516,-4.6656,-4.6655,-4.6654,-4.6654,-4.6653,-4.6211,-4.6248,-4.6279,-4.6326,-4.6351,-4.6383,-4.6422,-4.6439,-4.6483,-4.6534,-4.6537,-4.6596,-4.6633,-4.67,-4.6726,-4.6774,-4.6759,-4.6779,-4.6784,-4.6789,-4.6793,-4.6661,-4.6784,-4.6784,-4.6783,-4.6783,-4.6783,0,-4.632,-4.634,-4.6383,-4.6429,-4.6467,-4.6455,-4.6493,-4.6525,-4.6576,-4.6611,-4.6652,-4.6716,-4.6768,-4.6796,-4.6849,-4.6883,-4.6881,-4.6897,-4.6894,-4.69,-4.6804,-4.6786,-4.6897,-4.6897,-4.6897,-4.6897,-4.6897,-4.6897,-4.6381,-4.6445,-4.6453,-4.6531,-4.6551,-4.6607,-4.663,-4.6661,-4.6688,-4.6759,-4.6801,-4.6819,-4.6852,-4.6908,-4.6957,-4.6964,-4.6984,-4.7002,-4.7008,-4.6918,-4.6906,-4.6895,-4.6878,-4.7007,-4.7007,-4.7099,-4.71,-4.7101]},{"header":{"parameterUnit":"m.s-1","parameterCategory":1,"la1":30.2991,"la2":30.254,"lo1":-89.0895,"lo2":-89.0444,"dy":0.0017,"dx":0.0017,"nx":28,"ny":28,"refTime":"2026-02-14T03:00:00:Z","depth":0,"parameterNumber":3,"parameterNumberName":"V-component_of_WINDS"},"data":[0,0,0,0,0,0,0,0,0,0,0,0,0,0,0,0,0,0,0,0,0,0,0,0,0,0,0,0,0,0,0,0,0,0,0,0,0,0,0,0,0,0,0,0,0,0,0,0,0,0,0,0,0,0,0,0,0,0,2.2284,2.2284,0,2.2291,2.2291,2.2291,2.2325,2.2326,2.2327,2.2327,2.2332,2.2332,2.2331,0,0,0,0,0,0,0,0,0,0,0,0,0,2.2299,2.2298,2.2284,2.2284,2.2284,2.2291,2.2291,2.2291,2.2325,2.2326,2.2327,2.2328,2.2333,2.2332,2.2331,0,0,0,0,0,0,0,0,0,0,0,0,0,2.2297,2.2298,2.2284,2.2302,2.2304,2.2291,2.2291,2.2291,2.2325,2.2326,2.2327,2.2328,2.2333,2.2332,2.2331,2.2301,0,0,2.2328,2.2328,0,0,0,0,0,0,0,0,2.2297,2.2297,2.2299,2.2301,2.2303,2.2308,2.2298,2.2294,2.2324,2.2317,2.2327,2.2329,2.2323,2.2323,2.2322,2.2301,2.2301,2.2328,2.2327,2.2327,2.2327,0,0,0,0,0,0,0,2.2298,2.2297,2.2287,2.2299,2.2301,2.2309,2.231,2.2297,2.2313,2.2317,2.232,2.232,2.2324,2.2323,2.2322,2.2301,2.2328,2.2327,2.2327,2.2326,2.2256,2.2255,0,0,0,0,0,0,2.2295,2.2297,2.2286,2.2287,2.2303,2.2308,2.2309,2.2305,2.2313,2.2316,2.2319,2.2322,2.2324,2.2323,2.2322,2.2288,2.2327,2.2326,2.2326,2.2258,2.2256,2.2255,0,0,0,0,0,0,2.2296,2.2294,2.2286,2.2292,2.2292,2.2306,2.2302,2.2305,2.2303,2.2315,2.2317,2.2315,2.2324,2.2324,2.2306,2.2289,2.2326,2.2325,2.2259,2.2257,2.2255,2.2219,0,0,0,0,0,0,2.2296,2.2294,2.2283,2.2292,2.2292,2.227,2.23,2.2304,2.2301,2.2305,2.2311,2.2313,2.2325,2.2307,2.2305,2.2288,2.2324,2.2261,2.2258,2.2256,2.2222,2.2216,2.2211,0,0,0,0,0,2.2296,2.2272,2.2282,2.2281,2.2278,2.2269,2.2269,2.2284,2.23,2.2289,2.2296,2.2313,2.2291,2.2305,2.2303,2.2286,2.2262,2.2259,2.2256,2.2224,2.2217,2.2211,0,0,0,0,0,0,2.226,2.2273,2.2285,2.2263,2.2265,2.2275,2.2262,2.2276,2.2273,2.2276,2.2294,2.2295,2.2275,2.2278,2.2294,2.2257,2.2279,2.2276,2.2256,2.2249,2.2244,2.2244,2.2323,0,0,0,0,0,2.2249,2.2241,2.2253,2.2233,2.2233,2.2247,2.2243,2.2255,2.2257,2.2258,2.2264,2.2265,2.2259,2.2254,2.2248,2.2222,2.2224,2.2209,2.2204,2.2199,2.2196,2.2184,2.2177,2.2245,2.2245,2.2245,0,0,2.2227,2.2234,2.2228,2.2226,2.2228,2.2219,2.2247,2.2236,2.223,2.2256,2.2241,2.2245,2.2247,2.2225,2.2216,2.2228,2.2178,2.2195,2.2192,2.2191,2.218,2.2173,2.2168,2.2243,2.2244,2.2244,0,0,2.2183,2.2187,2.2171,2.2173,2.2177,2.2187,2.2183,2.2191,2.2195,2.2179,2.2199,2.2191,2.2179,2.218,2.2179,2.2135,2.2151,2.2133,2.2105,2.2093,2.2087,2.2083,2.2068,2.2062,2.213,2.2129,2.2129,0,2.2156,2.2144,2.2161,2.2149,2.2148,2.2171,2.2155,2.2156,2.2157,2.2156,2.2168,2.2154,2.2157,2.2137,2.2126,2.2124,2.212,2.2133,2.2087,2.2082,2.2078,2.2064,2.2059,2.2127,2.2128,2.2128,2.2128,0,2.211,2.2101,2.2087,2.2089,2.2086,2.2072,2.2086,2.2081,2.2092,2.21,2.2084,2.2089,2.2085,2.2081,2.2091,2.2061,2.2069,2.2084,2.2107,2.2069,2.2057,2.2051,2.2124,2.2125,2.2126,2.2126,0,0,2.2044,2.2056,2.205,2.2052,2.2058,2.2051,2.2038,2.2035,2.203,2.203,2.202,2.2009,2.2023,2.2022,2.2033,2.2022,2.1988,2.2038,2.2039,2.203,2.1956,2.1946,2.1939,2.1997,2.1996,2.1996,2.1956,0,2.2003,2.1982,2.1997,2.1973,2.1966,2.1988,2.1976,2.1978,2.1985,2.1979,2.1986,2.1979,2.1998,2.1997,2.1987,2.1994,2.1973,2.1997,2.1988,2.1988,2.1988,2.1932,2.1921,2.1884,2.1951,2.195,2.195,0,2.1952,2.1951,2.1927,2.1935,2.1933,2.1922,2.1921,2.1915,2.1918,2.1923,2.1922,2.1936,2.1923,2.1945,2.1928,2.1943,2.194,2.1943,2.1942,2.1943,2.1967,2.1933,2.1872,2.1867,2.1942,2.1943,2.1943,0,2.1908,2.19,2.1885,2.1886,2.1894,2.1887,2.189,2.1894,2.1891,2.1889,2.1888,2.1884,2.1883,2.1879,2.1892,2.1906,2.1873,2.1896,2.1878,2.1878,2.1871,2.1872,2.181,2.1867,2.1867,2.1867,2.1867,0,2.1862,2.1846,2.1866,2.1857,2.184,2.1856,2.1839,2.1845,2.1848,2.184,2.1858,2.185,2.1866,2.186,2.1869,2.1854,2.1853,2.1857,2.186,2.1856,2.1856,2.1856,2.1859,2.1866,2.1866,2.1866,2.1866,0,2.181,2.1823,2.1808,2.1817,2.1819,2.1807,2.1815,2.1806,2.1814,2.1804,2.1802,2.1814,2.1808,2.182,2.1814,2.182,2.1799,2.1806,2.1799,2.1801,2.1783,2.1785,2.1721,2.1713,2.1773,2.1773,2.1772,0,2.178,2.1769,2.1778,2.1774,2.1777,2.177,2.1768,2.1783,2.178,2.1782,2.1774,2.1768,2.1765,2.1753,2.1762,2.1757,2.1765,2.1742,2.1764,2.1761,2.1766,2.1767,2.1766,2.1738,2.1737,2.1737,2.1736,0,2.1727,2.1733,2.173,2.1728,2.1725,2.1724,2.1725,2.172,2.1736,2.1732,2.1726,2.1723,2.1718,2.1713,2.1711,2.1713,2.1727,2.1729,2.1725,2.1722,2.1719,2.1721,2.1788,2.1731,2.1731,2.1732,2.1732,2.1732,2.1686,2.1678,2.1683,2.1678,2.168,2.168,2.1673,2.168,2.1675,2.1673,2.1682,2.1674,2.1676,2.1675,2.1676,2.167,2.168,2.1674,2.1672,2.1671,2.1669,2.1719,2.1669,2.167,2.167,2.167,2.167,0,2.1634,2.1639,2.1634,2.1635,2.1631,2.1645,2.1646,2.1642,2.1635,2.1636,2.1633,2.1626,2.1621,2.1629,2.1625,2.1618,2.1625,2.1617,2.1618,2.1619,2.1659,2.1664,2.1612,2.1612,2.1612,2.1612,2.1612,2.1612,2.1607,2.1594,2.1601,2.1589,2.1593,2.1586,2.1585,2.1585,2.1587,2.1579,2.1575,2.158,2.1584,2.1581,2.1577,2.1579,2.1577,2.1568,2.1572,2.161,2.1616,2.1621,2.1626,2.1567,2.1567,2.1533,2.1532,2.1532]}]]